Location: New Canada
(47.1017°N, 68.5042°W)
Time: 23:52:49
(UTC+00:00)

AO-85 - Visible Passes

Search period start: 14 April 2024 00:00
Search period end: 24 April 2024 00:00
Orbit: 516 x 753 km, 64.8° (Epoch: 04 January)

Date Brightness Start Highest point End Pass type
(mag) Time Alt. Az. Time Alt. Az. Time Alt. Az.
14 Apr ? 05:01:11 11° ENE 05:01:11 11° ENE 05:01:20 10° ENE visible
14 Apr ? 06:38:24 49° N 06:38:24 49° N 06:42:12 10° NNE visible
14 Apr ? 08:16:07 10° WNW 08:18:44 15° NNW 08:21:28 10° N visible
15 Apr ? 05:19:19 19° ENE 05:19:19 19° ENE 05:20:51 10° NE visible
15 Apr ? 06:56:31 32° NW 06:56:45 32° NW 07:00:54 10° NNE visible
15 Apr ? 08:36:44 10° NW 08:38:15 11° NNW 08:39:47 10° N visible
16 Apr ? 05:37:24 32° NE 05:37:24 32° NE 05:39:55 10° NE visible
16 Apr ? 07:14:36 18° WNW 07:15:58 21° NNW 07:19:29 10° NNE visible
17 Apr ? 05:55:26 39° N 05:55:26 39° N 05:58:44 10° NNE visible
17 Apr ? 07:32:51 10° WNW 07:35:22 15° NNW 07:37:58 10° N visible
18 Apr ? 04:36:14 17° NE 04:36:14 17° NE 04:37:26 10° NE visible
18 Apr ? 06:13:26 30° NW 06:13:26 30° NW 06:17:24 10° NNE visible
18 Apr ? 07:53:30 10° NNW 07:54:52 11° NNW 07:56:15 10° N visible
19 Apr ? 04:54:11 28° NE 04:54:11 28° NE 04:56:26 10° NE visible
19 Apr ? 06:31:23 18° NW 06:32:32 20° NNW 06:35:58 10° NNE visible
20 Apr ? 05:12:05 36° N 05:12:05 36° N 05:15:13 10° NNE visible
20 Apr ? 06:49:31 10° NW 06:51:55 14° NNW 06:54:24 10° N visible
21 Apr ? 03:52:44 17° NE 03:52:44 17° NE 03:53:56 10° NE visible
21 Apr ? 05:29:55 28° NW 05:29:55 28° NW 05:33:51 10° NNE visible
21 Apr ? 07:10:13 10° NNW 07:11:25 11° NNW 07:12:37 10° N visible
21 Apr ? 08:53:24 10° N 08:53:41 10° N 08:53:58 10° NNE visible
22 Apr ? 04:10:30 30° NNE 04:10:30 30° NNE 04:12:53 10° NE visible
22 Apr ? 05:47:41 17° NW 05:49:02 19° NNW 05:52:22 10° NNE visible
23 Apr ? 02:51:01 11° ENE 02:51:01 11° ENE 02:51:08 10° ENE visible
23 Apr ? 04:28:12 38° N 04:28:12 38° N 04:31:37 10° NNE visible
23 Apr ? 06:06:07 10° NW 06:08:25 14° NNW 06:10:47 10° N visible
